| time (UTC) | temp F | wind direction | speed MPH | gust MPH | rain 1hr in | rain 24hr in | rain mn in | humidity % | barometer mb |
| 20260507060401 | 54 | 36 | 2.0 | 4.0 | 0.00 | 0.00 | 0.00 | 87 | 1006.8 |
| 20260507055858 | 56 | 86 | 4.0 | 7.0 | 0.00 | 0.00 | 0.00 | 86 | 1006.7 |
| 20260507055352 | 56 | 70 | 1.0 | 3.0 | 0.00 | 0.00 | 0.00 | 89 | 1006.6 |
| 20260507054850 | 56 | 47 | 2.0 | 3.0 | 0.00 | 0.00 | 0.00 | 89 | 1006.8 |
| 20260507054346 | 55 | 66 | 0.0 | 2.0 | 0.00 | 0.00 | 0.00 | 90 | 1006.6 |
| 20260507053843 | 55 | 36 | 1.0 | 2.0 | 0.00 | 0.00 | 0.00 | 92 | 1006.7 |
| 20260507053341 | 55 | 62 | 1.0 | 2.0 | 0.00 | 0.00 | 0.00 | 92 | 1006.7 |
| 20260507052839 | 54 | 66 | 1.0 | 1.0 | 0.00 | 0.00 | 0.00 | 93 | 1006.8 |
| 20260507052336 | 54 | 81 | 0.0 | 1.0 | 0.00 | 0.00 | 0.00 | 93 | 1006.9 |
| 20260507051833 | 53 | 89 | 1.0 | 2.0 | 0.00 | 0.00 | 0.00 | 93 | 1007.0 |
| 20260507051331 | 53 | 79 | 0.0 | 1.0 | 0.00 | 0.00 | 0.00 | 94 | 1006.8 |
| 20260507050828 | 52 | 77 | 0.0 | 1.0 | 0.00 | 0.00 | 0.00 | 94 | 1007.2 |
| 20260507050324 | 52 | 83 | 0.0 | 1.0 | 0.00 | 0.00 | 0.00 | 94 | 1007.1 |
| 20260507045821 | 52 | 90 | 1.0 | 1.0 | 0.00 | 0.00 | 0.00 | 95 | 1007.3 |
| 20260507045317 | 51 | 94 | 0.0 | 1.0 | 0.00 | 0.00 | 0.00 | 95 | 1007.3 |
| 20260507044815 | 51 | 93 | 0.0 | 0.0 | 0.00 | 0.00 | 0.00 | 95 | 1007.3 |
| 20260507044311 | 51 | 93 | 0.0 | 0.0 | 0.00 | 0.00 | 0.00 | 95 | 1007.2 |
| 20260507043807 | 50 | 95 | 0.0 | 1.0 | 0.00 | 0.00 | 0.00 | 95 | 1007.4 |
| 20260507043304 | 50 | 91 | 1.0 | 2.0 | 0.00 | 0.00 | 0.00 | 95 | 1007.1 |
| 20260507042800 | 50 | 81 | 2.0 | 2.0 | 0.00 | 0.00 | 0.00 | 95 | 1007.1 |
| 20260507042255 | 50 | 91 | 1.0 | 1.0 | 0.00 | 0.00 | 0.00 | 96 | 1007.1 |
| 20260507041753 | 50 | 89 | 0.0 | 1.0 | 0.00 | 0.00 | 0.00 | 96 | 1007.1 |
| 20260507041249 | 49 | 88 | 0.0 | 2.0 | 0.00 | 0.00 | 0.00 | 96 | 1007.3 |
| 20260507040747 | 48 | 92 | 3.0 | 3.0 | 0.00 | 0.00 | 0.00 | 96 | 1007.2 |
| 20260507040243 | 48 | 69 | 0.0 | 3.0 | 0.00 | 0.00 | 0.00 | 96 | 1007.2 |
| 20260507035739 | 48 | 75 | 0.0 | 2.0 | 0.00 | 0.00 | 0.00 | 97 | 1007.1 |
| 20260507035234 | 47 | 85 | 0.0 | 0.0 | 0.00 | 0.00 | 0.00 | 97 | 1007.1 |
| 20260507034732 | 47 | 80 | 0.0 | 0.0 | 0.00 | 0.00 | 0.00 | 96 | 1007.1 |
| 20260507034229 | 47 | 74 | 0.0 | 0.0 | 0.00 | 0.00 | 0.00 | 96 | 1007.1 |
| 20260507033727 | 47 | 74 | 0.0 | 1.0 | 0.00 | 0.00 | 0.00 | 97 | 1007.0 |
| 20260507033224 | 46 | 74 | 0.0 | 1.0 | 0.00 | 0.00 | 0.00 | 96 | 1006.9 |
| 20260507032722 | 46 | 69 | 2.0 | 2.0 | 0.00 | 0.00 | 0.00 | 96 | 1006.9 |
| 20260507032217 | 46 | 71 | 0.0 | 0.0 | 0.00 | 0.00 | 0.00 | 96 | 1006.8 |
| 20260507031714 | 46 | 80 | 0.0 | 0.0 | 0.00 | 0.00 | 0.00 | 96 | 1007.1 |
| 20260507031211 | 46 | 80 | 0.0 | 0.0 | 0.00 | 0.00 | 0.00 | 97 | 1007.2 |
| 20260507030708 | 45 | 72 | 0.0 | 1.0 | 0.00 | 0.00 | 0.00 | 96 | 1007.0 |
| 20260507030205 | 45 | 73 | 0.0 | 0.0 | 0.00 | 0.00 | 0.00 | 96 | 1007.0 |
| 20260507025702 | 45 | 72 | 0.0 | 0.0 | 0.00 | 0.00 | 0.00 | 96 | 1007.1 |
| 20260507025159 | 45 | 76 | 0.0 | 0.0 | 0.00 | 0.00 | 0.00 | 96 | 1007.1 |
| 20260507024657 | 45 | 80 | 0.0 | 0.0 | 0.00 | 0.00 | 0.00 | 96 | 1007.2 |
| 20260507024154 | 45 | 80 | 0.0 | 0.0 | 0.00 | 0.00 | 0.00 | 96 | 1007.1 |
| 20260507023649 | 45 | 80 | 0.0 | 0.0 | 0.00 | 0.00 | 0.00 | 96 | 1007.1 |
| 20260507023147 | 45 | 71 | 1.0 | 2.0 | 0.00 | 0.00 | 0.00 | 96 | 1007.0 |
| 20260507022644 | 45 | 78 | 0.0 | 1.0 | 0.00 | 0.00 | 0.00 | 96 | 1007.1 |
| 20260507022140 | 45 | 73 | 0.0 | 1.0 | 0.00 | 0.00 | 0.00 | 96 | 1007.0 |
| 20260507021636 | 45 | 77 | 0.0 | 1.0 | 0.00 | 0.00 | 0.00 | 96 | 1006.8 |
| 20260507021132 | 45 | 74 | 0.0 | 2.0 | 0.00 | 0.00 | 0.00 | 96 | 1006.8 |
| 20260507020630 | 45 | 72 | 1.0 | 1.0 | 0.00 | 0.00 | 0.00 | 96 | 1006.8 |
| 20260507020126 | 45 | 66 | 1.0 | 1.0 | 0.00 | 0.00 | 0.00 | 96 | 1007.0 |
| 20260507015625 | 45 | 76 | 1.0 | 2.0 | 0.00 | 0.00 | 0.00 | 96 | 1006.9 |
| 20260507015122 | 45 | 76 | 0.0 | 1.0 | 0.00 | 0.00 | 0.00 | 96 | 1006.9 |
| 20260507014618 | 46 | 75 | 0.0 | 0.0 | 0.00 | 0.00 | 0.00 | 96 | 1006.9 |
| 20260507014114 | 46 | 67 | 1.0 | 2.0 | 0.00 | 0.00 | 0.00 | 96 | 1006.8 |
| 20260507013611 | 46 | 74 | 0.0 | 1.0 | 0.00 | 0.00 | 0.00 | 96 | 1006.9 |
| 20260507013108 | 46 | 78 | 0.0 | 1.0 | 0.00 | 0.00 | 0.00 | 96 | 1006.7 |
| 20260507012606 | 46 | 76 | 0.0 | 0.0 | 0.00 | 0.00 | 0.00 | 96 | 1006.6 |
| 20260507012101 | 46 | 77 | 0.0 | 0.0 | 0.00 | 0.00 | 0.00 | 96 | 1006.7 |
| 20260507011559 | 46 | 77 | 0.0 | 0.0 | 0.00 | 0.00 | 0.00 | 96 | 1006.9 |
| 20260507011055 | 46 | 77 | 0.0 | 0.0 | 0.00 | 0.00 | 0.00 | 96 | 1006.7 |
| 20260507010550 | 46 | 81 | 0.0 | 0.0 | 0.00 | 0.00 | 0.00 | 96 | 1006.6 |
| 20260507010046 | 46 | 70 | 0.0 | 1.0 | 0.00 | 0.00 | 0.00 | 96 | 1006.8 |
| 20260507005544 | 45 | 83 | 0.0 | 0.0 | 0.00 | 0.00 | 0.00 | 95 | 1006.9 |
| 20260507005040 | 46 | 81 | 0.0 | 0.0 | 0.00 | 0.00 | 0.00 | 95 | 1006.7 |
| 20260507004537 | 46 | 74 | 0.0 | 2.0 | 0.00 | 0.00 | 0.00 | 95 | 1006.8 |
| 20260507004029 | 46 | 68 | 1.0 | 2.0 | 0.00 | 0.00 | 0.00 | 96 | 1006.7 |
| 20260507003524 | 46 | 74 | 0.0 | 1.0 | 0.00 | 0.00 | 0.00 | 95 | 1006.5 |
| 20260507003019 | 46 | 66 | 1.0 | 1.0 | 0.00 | 0.00 | 0.00 | 95 | 1006.8 |
| 20260507002517 | 46 | 63 | 0.0 | 0.0 | 0.00 | 0.00 | 0.00 | 95 | 1006.9 |
| 20260507002013 | 46 | 75 | 0.0 | 0.0 | 0.00 | 0.00 | 0.00 | 95 | 1006.9 |
| 20260507001509 | 46 | 75 | 0.0 | 1.0 | 0.00 | 0.00 | 0.00 | 95 | 1006.8 |
| 20260507001007 | 46 | 83 | 0.0 | 0.0 | 0.00 | 0.00 | 0.00 | 95 | 1006.8 |
| 20260507000502 | 46 | 83 | 0.0 | 0.0 | 0.00 | 0.00 | 0.00 | 95 | 1006.8 |
| 20260506235957 | 46 | 82 | 0.0 | 0.0 | 0.00 | 0.00 | 0.00 | 95 | 1006.9 |
| 20260506235455 | 46 | 87 | 0.0 | 0.0 | 0.00 | 0.00 | 0.00 | 94 | 1006.8 |
| 20260506234951 | 46 | 87 | 0.0 | 2.0 | 0.00 | 0.00 | 0.00 | 94 | 1006.8 |
| 20260506234449 | 46 | 74 | 0.0 | 0.0 | 0.00 | 0.00 | 0.00 | 94 | 1006.6 |
| 20260506233946 | 46 | 70 | 0.0 | 0.0 | 0.00 | 0.00 | 0.00 | 94 | 1006.9 |
| 20260506233442 | 47 | 69 | 0.0 | 0.0 | 0.00 | 0.00 | 0.00 | 94 | 1006.9 |
| 20260506232939 | 47 | 66 | 0.0 | 0.0 | 0.00 | 0.00 | 0.00 | 94 | 1006.8 |
| 20260506232435 | 47 | 66 | 0.0 | 1.0 | 0.00 | 0.00 | 0.00 | 94 | 1006.6 |
| 20260506231931 | 47 | 64 | 0.0 | 1.0 | 0.00 | 0.00 | 0.00 | 94 | 1006.9 |
| 20260506231429 | 47 | 59 | 1.0 | 1.0 | 0.00 | 0.00 | 0.00 | 94 | 1006.9 |
| 20260506230926 | 47 | 73 | 0.0 | 1.0 | 0.00 | 0.00 | 0.00 | 93 | 1006.9 |
| 20260506230422 | 47 | 74 | 0.0 | 1.0 | 0.00 | 0.00 | 0.00 | 93 | 1006.8 |
| 20260506225919 | 47 | 79 | 0.0 | 0.0 | 0.00 | 0.00 | 0.00 | 93 | 1006.6 |
| 20260506225416 | 48 | 79 | 0.0 | 0.0 | 0.00 | 0.00 | 0.00 | 93 | 1006.7 |
| 20260506224913 | 48 | 86 | 0.0 | 1.0 | 0.00 | 0.00 | 0.00 | 93 | 1006.8 |
| 20260506224411 | 48 | 79 | 0.0 | 1.0 | 0.00 | 0.00 | 0.00 | 93 | 1006.8 |
| 20260506223906 | 48 | 75 | 1.0 | 1.0 | 0.00 | 0.00 | 0.00 | 93 | 1006.8 |
| 20260506223402 | 48 | 61 | 1.0 | 2.0 | 0.00 | 0.00 | 0.00 | 93 | 1006.7 |
| 20260506222859 | 48 | 67 | 1.0 | 2.0 | 0.00 | 0.00 | 0.00 | 92 | 1006.8 |
| 20260506222355 | 48 | 80 | 2.0 | 6.0 | 0.00 | 0.00 | 0.00 | 92 | 1006.8 |
| 20260506221853 | 48 | 73 | 0.0 | 1.0 | 0.00 | 0.00 | 0.00 | 92 | 1006.7 |
| 20260506221350 | 49 | 69 | 0.0 | 3.0 | 0.00 | 0.00 | 0.00 | 92 | 1006.5 |
| 20260506220847 | 49 | 69 | 1.0 | 2.0 | 0.00 | 0.00 | 0.00 | 91 | 1006.5 |
| 20260506220343 | 49 | 77 | 0.0 | 2.0 | 0.00 | 0.00 | 0.00 | 91 | 1006.6 |
| 20260506215840 | 49 | 82 | 1.0 | 3.0 | 0.00 | 0.00 | 0.00 | 91 | 1006.6 |
| 20260506215336 | 49 | 81 | 3.0 | 3.0 | 0.00 | 0.00 | 0.00 | 91 | 1006.4 |
| 20260506214832 | 49 | 87 | 0.0 | 2.0 | 0.00 | 0.00 | 0.00 | 91 | 1006.4 |
| 20260506214329 | 49 | 84 | 0.0 | 2.0 | 0.00 | 0.00 | 0.00 | 91 | 1006.5 |
| 20260506213827 | 49 | 90 | 2.0 | 3.0 | 0.00 | 0.00 | 0.00 | 91 | 1006.6 |
| 20260506213324 | 49 | 80 | 1.0 | 2.0 | 0.00 | 0.00 | 0.00 | 90 | 1006.5 |
| 20260506212821 | 50 | 81 | 0.0 | 4.0 | 0.00 | 0.00 | 0.00 | 90 | 1006.2 |
| 20260506212317 | 50 | 76 | 0.0 | 2.0 | 0.00 | 0.00 | 0.00 | 90 | 1006.5 |
| 20260506211812 | 50 | 76 | 0.0 | 2.0 | 0.00 | 0.00 | 0.00 | 90 | 1006.4 |
| 20260506211308 | 50 | 66 | 2.0 | 7.0 | 0.00 | 0.00 | 0.00 | 89 | 1006.4 |
| 20260506210806 | 50 | 80 | 2.0 | 6.0 | 0.00 | 0.00 | 0.00 | 90 | 1006.4 |
| 20260506210302 | 50 | 68 | 2.0 | 7.0 | 0.00 | 0.00 | 0.00 | 89 | 1006.2 |
| 20260506205800 | 50 | 80 | 4.0 | 7.0 | 0.00 | 0.04 | 0.04 | 89 | 1006.4 |
| 20260506205255 | 50 | 58 | 2.0 | 6.0 | 0.00 | 0.04 | 0.04 | 89 | 1006.5 |
| 20260506204752 | 51 | 78 | 2.0 | 4.0 | 0.00 | 0.04 | 0.04 | 89 | 1006.2 |
| 20260506204250 | 51 | 66 | 2.0 | 3.0 | 0.00 | 0.04 | 0.04 | 88 | 1006.4 |
| 20260506203747 | 51 | 62 | 2.0 | 4.0 | 0.00 | 0.04 | 0.04 | 88 | 1006.4 |
| 20260506203244 | 51 | 54 | 3.0 | 4.0 | 0.00 | 0.04 | 0.04 | 88 | 1006.5 |
| 20260506202742 | 52 | 47 | 1.0 | 3.0 | 0.00 | 0.04 | 0.04 | 88 | 1006.5 |
| 20260506202238 | 52 | 61 | 2.0 | 6.0 | 0.00 | 0.04 | 0.04 | 88 | 1006.4 |
| 20260506201735 | 52 | 70 | 2.0 | 3.0 | 0.00 | 0.04 | 0.04 | 88 | 1006.6 |
| 20260506201232 | 52 | 59 | 2.0 | 4.0 | 0.00 | 0.04 | 0.04 | 88 | 1006.6 |
| 20260506200729 | 52 | 83 | 1.0 | 4.0 | 0.00 | 0.04 | 0.04 | 87 | 1006.6 |
| 20260506200225 | 52 | 57 | 2.0 | 3.0 | 0.00 | 0.04 | 0.04 | 87 | 1006.5 |
| 20260506195721 | 53 | 42 | 3.0 | 4.0 | 0.00 | 0.04 | 0.04 | 87 | 1006.3 |
| 20260506195218 | 53 | 68 | 2.0 | 4.0 | 0.00 | 0.04 | 0.04 | 87 | 1006.2 |
| 20260506194715 | 53 | 61 | 3.0 | 4.0 | 0.00 | 0.04 | 0.04 | 87 | 1006.5 |
| 20260506194212 | 53 | 24 | 1.0 | 4.0 | 0.00 | 0.04 | 0.04 | 86 | 1006.4 |
| 20260506193710 | 53 | 29 | 4.0 | 4.0 | 0.00 | 0.04 | 0.04 | 86 | 1006.3 |
| 20260506193201 | 53 | 341 | 3.0 | 7.0 | 0.00 | 0.04 | 0.04 | 86 | 1006.3 |
| 20260506192657 | 54 | 295 | 7.0 | 9.0 | 0.00 | 0.04 | 0.04 | 86 | 1006.5 |
| 20260506192154 | 54 | 306 | 4.0 | 9.0 | 0.00 | 0.04 | 0.04 | 86 | 1006.4 |
| 20260506191651 | 54 | 342 | 4.0 | 6.0 | 0.00 | 0.04 | 0.04 | 86 | 1005.8 |
| 20260506191147 | 54 | 68 | 1.0 | 4.0 | 0.00 | 0.04 | 0.04 | 86 | 1005.6 |
| 20260506190644 | 54 | 69 | 2.0 | 6.0 | 0.00 | 0.04 | 0.04 | 85 | 1005.7 |
| 20260506190141 | 54 | 94 | 1.0 | 2.0 | 0.00 | 0.04 | 0.04 | 85 | 1005.4 |
| 20260506185638 | 54 | 103 | 7.0 | 11.0 | 0.00 | 0.04 | 0.04 | 86 | 1005.5 |
| 20260506185134 | 54 | 81 | 3.0 | 6.0 | 0.00 | 0.04 | 0.04 | 86 | 1005.3 |
| 20260506184632 | 54 | 91 | 2.0 | 6.0 | 0.00 | 0.04 | 0.04 | 85 | 1005.3 |
| 20260506184129 | 54 | 88 | 1.0 | 8.0 | 0.00 | 0.04 | 0.04 | 85 | 1005.3 |
| 20260506183625 | 54 | 87 | 3.0 | 7.0 | 0.00 | 0.04 | 0.04 | 85 | 1005.2 |
| 20260506183121 | 54 | 86 | 5.0 | 6.0 | 0.00 | 0.04 | 0.04 | 85 | 1005.1 |
| 20260506182619 | 54 | 68 | 6.0 | 9.0 | 0.00 | 0.04 | 0.04 | 85 | 1005.3 |
| 20260506182116 | 54 | 90 | 2.0 | 4.0 | 0.00 | 0.04 | 0.04 | 85 | 1005.2 |
| 20260506181614 | 54 | 76 | 5.0 | 8.0 | 0.00 | 0.04 | 0.04 | 85 | 1005.1 |
| 20260506181111 | 55 | 56 | 3.0 | 8.0 | 0.00 | 0.04 | 0.04 | 85 | 1005.0 |
| 20260506180607 | 55 | 49 | 3.0 | 7.0 | 0.00 | 0.04 | 0.04 | 84 | 1005.2 |
| 20260506180104 | 55 | 80 | 3.0 | 7.0 | 0.00 | 0.04 | 0.04 | 84 | 1005.3 |
| 20260506175600 | 55 | 85 | 2.0 | 9.0 | 0.00 | 0.04 | 0.04 | 83 | 1005.3 |
| 20260506175056 | 55 | 82 | 7.0 | 9.0 | 0.00 | 0.04 | 0.04 | 83 | 1005.4 |
| 20260506174555 | 55 | 55 | 2.0 | 9.0 | 0.00 | 0.04 | 0.04 | 83 | 1005.2 |
| 20260506174051 | 55 | 53 | 3.0 | 7.0 | 0.00 | 0.04 | 0.04 | 82 | 1005.3 |
| 20260506173549 | 55 | 49 | 2.0 | 7.0 | 0.00 | 0.04 | 0.04 | 82 | 1005.4 |
| 20260506173045 | 55 | 76 | 5.0 | 8.0 | 0.00 | 0.04 | 0.04 | 82 | 1005.3 |
| 20260506172543 | 55 | 69 | 2.0 | 8.0 | 0.00 | 0.04 | 0.04 | 82 | 1005.2 |
| 20260506172039 | 55 | 85 | 3.0 | 8.0 | 0.00 | 0.04 | 0.04 | 81 | 1005.2 |
| 20260506171537 | 56 | 70 | 7.0 | 9.0 | 0.00 | 0.04 | 0.04 | 81 | 1005.3 |
| 20260506171035 | 56 | 88 | 5.0 | 9.0 | 0.00 | 0.04 | 0.04 | 81 | 1005.3 |
| 20260506170532 | 56 | 79 | 2.0 | 4.0 | 0.00 | 0.04 | 0.04 | 81 | 1005.2 |
| 20260506170029 | 56 | 87 | 4.0 | 8.0 | 0.00 | 0.04 | 0.04 | 81 | 1005.2 |
| 20260506165527 | 56 | 70 | 3.0 | 7.0 | 0.00 | 0.04 | 0.04 | 81 | 1005.4 |
| 20260506165023 | 56 | 67 | 4.0 | 11.0 | 0.00 | 0.04 | 0.04 | 80 | 1005.2 |
| 20260506164520 | 56 | 56 | 2.0 | 9.0 | 0.00 | 0.04 | 0.04 | 80 | 1005.3 |
| 20260506164018 | 56 | 78 | 7.0 | 11.0 | 0.00 | 0.04 | 0.04 | 79 | 1005.3 |
| 20260506163513 | 57 | 53 | 6.0 | 14.0 | 0.00 | 0.04 | 0.04 | 78 | 1005.4 |
| 20260506163009 | 57 | 76 | 4.0 | 17.0 | 0.00 | 0.04 | 0.04 | 79 | 1005.5 |
| 20260506162506 | 57 | 77 | 2.0 | 13.0 | 0.00 | 0.04 | 0.04 | 79 | 1005.4 |
| 20260506162003 | 57 | 38 | 6.0 | 13.0 | 0.00 | 0.04 | 0.04 | 79 | 1005.2 |
| 20260506161500 | 57 | 55 | 2.0 | 15.0 | 0.00 | 0.04 | 0.04 | 78 | 1005.5 |
| 20260506160958 | 58 | 63 | 11.0 | 13.0 | 0.00 | 0.04 | 0.04 | 78 | 1005.3 |
| 20260506160455 | 58 | 49 | 5.0 | 10.0 | 0.00 | 0.04 | 0.04 | 78 | 1005.6 |
| 20260506155952 | 57 | 66 | 8.0 | 10.0 | 0.00 | 0.04 | 0.04 | 79 | 1005.6 |
| 20260506155450 | 57 | 69 | 6.0 | 13.0 | 0.00 | 0.04 | 0.04 | 78 | 1005.6 |
| 20260506153616 | 58 | 46 | 7.0 | 10.0 | 0.00 | 0.04 | 0.04 | 78 | 1005.8 |
| 20260506153114 | 58 | 22 | 7.0 | 10.0 | 0.00 | 0.04 | 0.04 | 78 | 1005.9 |
| 20260506152611 | 58 | 56 | 6.0 | 10.0 | 0.00 | 0.04 | 0.04 | 80 | 1006.0 |
| 20260506152108 | 58 | 67 | 4.0 | 8.0 | 0.00 | 0.04 | 0.04 | 80 | 1006.0 |
| 20260506151606 | 58 | 56 | 2.0 | 6.0 | 0.00 | 0.04 | 0.04 | 81 | 1006.1 |
| 20260506151103 | 58 | 60 | 3.0 | 7.0 | 0.00 | 0.04 | 0.04 | 81 | 1005.9 |
| 20260506150600 | 58 | 23 | 4.0 | 7.0 | 0.07 | 0.04 | 0.04 | 81 | 1006.2 |
| 20260506150057 | 59 | 47 | 2.0 | 9.0 | 0.07 | 0.04 | 0.04 | 80 | 1006.2 |
| 20260506145553 | 59 | 72 | 4.0 | 4.0 | 0.05 | 0.03 | 0.03 | 80 | 1006.2 |
| 20260506145051 | 60 | 66 | 2.0 | 4.0 | 0.12 | 0.03 | 0.03 | 78 | 1006.5 |
| 20260506144547 | 61 | 82 | 2.0 | 4.0 | 0.12 | 0.02 | 0.02 | 75 | 1006.8 |
| 20260506144044 | 62 | 86 | 3.0 | 6.0 | 0.05 | 0.01 | 0.01 | 70 | 1006.8 |
| 20260506143542 | 63 | 61 | 2.0 | 3.0 | 0.00 | 0.00 | 0.00 | 64 | 1007.2 |
| 20260506143041 | 64 | 79 | 0.0 | 2.0 | 0.00 | 0.00 | 0.00 | 63 | 1007.2 |
| 20260506142538 | 64 | 95 | 0.0 | 0.0 | 0.00 | 0.00 | 0.00 | 63 | 1006.9 |
| 20260506142036 | 64 | 80 | 2.0 | 6.0 | 0.00 | 0.00 | 0.00 | 62 | 1006.4 |
| 20260506141533 | 64 | 74 | 8.0 | 10.0 | 0.00 | 0.00 | 0.00 | 61 | 1006.1 |
| 20260506141032 | 64 | 53 | 4.0 | 7.0 | 0.00 | 0.00 | 0.00 | 61 | 1006.2 |
| 20260506140529 | 65 | 85 | 5.0 | 10.0 | 0.00 | 0.00 | 0.00 | 61 | 1006.1 |
| 20260506140026 | 65 | 81 | 2.0 | 9.0 | 0.00 | 0.00 | 0.00 | 61 | 1006.1 |
| 20260506135523 | 65 | 90 | 3.0 | 8.0 | 0.00 | 0.00 | 0.00 | 61 | 1006.2 |
| 20260506135019 | 65 | 88 | 5.0 | 10.0 | 0.00 | 0.00 | 0.00 | 60 | 1006.2 |
| 20260506134515 | 65 | 74 | 6.0 | 7.0 | 0.00 | 0.00 | 0.00 | 60 | 1006.4 |
| 20260506134012 | 66 | 85 | 8.0 | 13.0 | 0.00 | 0.00 | 0.00 | 58 | 1006.3 |
| 20260506133509 | 67 | 53 | 7.0 | 13.0 | 0.00 | 0.00 | 0.00 | 58 | 1006.2 |
| 20260506133006 | 67 | 84 | 4.0 | 9.0 | 0.00 | 0.00 | 0.00 | 59 | 1006.4 |
| 20260506132503 | 67 | 52 | 5.0 | 8.0 | 0.00 | 0.00 | 0.00 | 60 | 1006.7 |
| 20260506132000 | 66 | 75 | 6.0 | 9.0 | 0.00 | 0.00 | 0.00 | 59 | 1006.6 |
| 20260506131457 | 67 | 96 | 7.0 | 10.0 | 0.00 | 0.00 | 0.00 | 59 | 1006.8 |
| 20260506130953 | 66 | 86 | 10.0 | 15.0 | 0.00 | 0.00 | 0.00 | 58 | 1007.0 |
| 20260506130450 | 67 | 92 | 6.0 | 11.0 | 0.00 | 0.00 | 0.00 | 58 | 1006.9 |
| 20260506125948 | 67 | 71 | 5.0 | 9.0 | 0.00 | 0.00 | 0.00 | 58 | 1007.1 |
| 20260506125446 | 67 | 63 | 3.0 | 10.0 | 0.00 | 0.00 | 0.00 | 56 | 1007.1 |
| 20260506124944 | 66 | 85 | 8.0 | 11.0 | 0.00 | 0.00 | 0.00 | 58 | 1007.1 |
| 20260506124441 | 66 | 102 | 6.0 | 9.0 | 0.00 | 0.00 | 0.00 | 60 | 1007.1 |
| 20260506123939 | 65 | 76 | 6.0 | 10.0 | 0.00 | 0.00 | 0.00 | 59 | 1007.2 |
| 20260506123437 | 66 | 84 | 6.0 | 14.0 | 0.00 | 0.00 | 0.00 | 58 | 1007.2 |
| 20260506122934 | 66 | 93 | 8.0 | 10.0 | 0.00 | 0.00 | 0.00 | 58 | 1007.5 |
| 20260506122430 | 66 | 91 | 7.0 | 11.0 | 0.00 | 0.00 | 0.00 | 57 | 1007.3 |
| 20260506121929 | 65 | 83 | 4.0 | 8.0 | 0.00 | 0.00 | 0.00 | 59 | 1007.4 |
| 20260506121426 | 65 | 94 | 3.0 | 11.0 | 0.00 | 0.00 | 0.00 | 59 | 1007.2 |
| 20260506120923 | 66 | 80 | 9.0 | 13.0 | 0.00 | 0.00 | 0.00 | 56 | 1007.7 |
| 20260506120420 | 66 | 82 | 6.0 | 11.0 | 0.00 | 0.00 | 0.00 | 56 | 1007.5 |
| 20260506115917 | 65 | 85 | 5.0 | 14.0 | 0.00 | 0.00 | 0.00 | 59 | 1007.4 |
| 20260506115415 | 65 | 86 | 9.0 | 14.0 | 0.00 | 0.00 | 0.00 | 56 | 1007.7 |
| 20260506114913 | 66 | 58 | 8.0 | 18.0 | 0.00 | 0.00 | 0.00 | 55 | 1007.5 |
| 20260506114410 | 65 | 92 | 6.0 | 8.0 | 0.00 | 0.00 | 0.00 | 58 | 1007.5 |
| 20260506113909 | 65 | 79 | 4.0 | 9.0 | 0.00 | 0.00 | 0.00 | 60 | 1007.7 |
| 20260506113406 | 64 | 66 | 4.0 | 14.0 | 0.00 | 0.00 | 0.00 | 59 | 1007.7 |
| 20260506112903 | 64 | 28 | 5.0 | 9.0 | 0.00 | 0.00 | 0.00 | 60 | 1007.8 |
| 20260506112400 | 64 | 101 | 5.0 | 13.0 | 0.00 | 0.00 | 0.00 | 61 | 1008.0 |
| 20260506111857 | 64 | 90 | 4.0 | 15.0 | 0.00 | 0.00 | 0.00 | 57 | 1008.0 |
| 20260506111355 | 64 | 69 | 8.0 | 11.0 | 0.00 | 0.00 | 0.00 | 56 | 1007.9 |
| 20260506110852 | 63 | 96 | 4.0 | 13.0 | 0.00 | 0.00 | 0.00 | 60 | 1008.1 |
| 20260506110350 | 63 | 85 | 4.0 | 14.0 | 0.00 | 0.00 | 0.00 | 59 | 1008.0 |
| 20260506105847 | 63 | 74 | 3.0 | 10.0 | 0.00 | 0.00 | 0.00 | 61 | 1008.3 |
| 20260506105343 | 63 | 83 | 8.0 | 14.0 | 0.00 | 0.00 | 0.00 | 58 | 1008.2 |
| 20260506104840 | 63 | 81 | 11.0 | 15.0 | 0.00 | 0.00 | 0.00 | 57 | 1008.1 |
| 20260506104338 | 64 | 91 | 7.0 | 10.0 | 0.00 | 0.00 | 0.00 | 60 | 1008.2 |
| 20260506103836 | 62 | 118 | 6.0 | 10.0 | 0.00 | 0.00 | 0.00 | 60 | 1008.4 |
| 20260506103333 | 62 | 86 | 4.0 | 10.0 | 0.00 | 0.00 | 0.00 | 60 | 1008.4 |
| 20260506102830 | 62 | 47 | 3.0 | 9.0 | 0.00 | 0.00 | 0.00 | 60 | 1008.5 |
| 20260506102328 | 63 | 87 | 6.0 | 9.0 | 0.00 | 0.00 | 0.00 | 58 | 1008.5 |
| 20260506101825 | 61 | 47 | 5.0 | 7.0 | 0.00 | 0.00 | 0.00 | 61 | 1008.5 |
| 20260506101321 | 61 | 65 | 5.0 | 10.0 | 0.00 | 0.00 | 0.00 | 60 | 1008.8 |
| 20260506100819 | 61 | 82 | 2.0 | 8.0 | 0.00 | 0.00 | 0.00 | 63 | 1008.8 |
| 20260506100317 | 61 | 60 | 4.0 | 11.0 | 0.00 | 0.00 | 0.00 | 63 | 1008.7 |
| 20260506095815 | 60 | 67 | 4.0 | 8.0 | 0.00 | 0.00 | 0.00 | 63 | 1008.6 |
| 20260506095312 | 60 | 30 | 4.0 | 13.0 | 0.00 | 0.00 | 0.00 | 61 | 1008.5 |
| 20260506094809 | 60 | 67 | 9.0 | 13.0 | 0.00 | 0.00 | 0.00 | 62 | 1008.6 |
| 20260506094307 | 60 | 75 | 5.0 | 14.0 | 0.00 | 0.00 | 0.00 | 61 | 1008.5 |
| 20260506093805 | 60 | 65 | 5.0 | 9.0 | 0.00 | 0.00 | 0.00 | 64 | 1008.5 |
| 20260506093302 | 60 | 72 | 6.0 | 14.0 | 0.00 | 0.00 | 0.00 | 62 | 1008.6 |
| 20260506092800 | 59 | 85 | 4.0 | 13.0 | 0.00 | 0.00 | 0.00 | 63 | 1008.5 |
| 20260506092257 | 59 | 38 | 9.0 | 11.0 | 0.00 | 0.00 | 0.00 | 62 | 1008.6 |
| 20260506091754 | 59 | 72 | 9.0 | 13.0 | 0.00 | 0.00 | 0.00 | 63 | 1008.3 |
| 20260506091252 | 58 | 80 | 5.0 | 9.0 | 0.00 | 0.00 | 0.00 | 65 | 1008.5 |
| 20260506090750 | 58 | 50 | 8.0 | 16.0 | 0.00 | 0.00 | 0.00 | 63 | 1008.7 |
| 20260506090247 | 59 | 73 | 6.0 | 11.0 | 0.00 | 0.00 | 0.00 | 64 | 1008.6 |
| 20260506085743 | 58 | 51 | 5.0 | 15.0 | 0.00 | 0.00 | 0.00 | 64 | 1008.6 |
| 20260506085240 | 59 | 48 | 9.0 | 11.0 | 0.00 | 0.00 | 0.00 | 65 | 1008.6 |
| 20260506084736 | 58 | 41 | 3.0 | 9.0 | 0.00 | 0.00 | 0.00 | 66 | 1008.8 |
| 20260506084233 | 58 | 74 | 5.0 | 13.0 | 0.00 | 0.00 | 0.00 | 65 | 1008.8 |
| 20260506083730 | 58 | 64 | 3.0 | 10.0 | 0.00 | 0.00 | 0.00 | 66 | 1008.8 |
| 20260506083228 | 58 | 64 | 6.0 | 10.0 | 0.00 | 0.00 | 0.00 | 65 | 1008.8 |
| 20260506082725 | 58 | 56 | 2.0 | 10.0 | 0.00 | 0.00 | 0.00 | 68 | 1008.8 |
| 20260506082220 | 58 | 111 | 3.0 | 9.0 | 0.00 | 0.00 | 0.00 | 69 | 1009.1 |
| 20260506081718 | 57 | 78 | 3.0 | 9.0 | 0.00 | 0.00 | 0.00 | 69 | 1008.9 |
| 20260506081215 | 57 | 81 | 6.0 | 11.0 | 0.00 | 0.00 | 0.00 | 68 | 1009.2 |
| 20260506080713 | 57 | 80 | 5.0 | 10.0 | 0.00 | 0.00 | 0.00 | 70 | 1009.2 |
| 20260506080209 | 57 | 94 | 5.0 | 11.0 | 0.00 | 0.00 | 0.00 | 69 | 1009.2 |
| 20260506073154 | 55 | 65 | 7.0 | 10.0 | 0.00 | 0.00 | 0.00 | 72 | 1009.5 |
| 20260506072650 | 55 | 79 | 5.0 | 8.0 | 0.00 | 0.00 | 0.00 | 72 | 1009.2 |
| 20260506072148 | 55 | 92 | 7.0 | 11.0 | 0.00 | 0.00 | 0.00 | 72 | 1009.4 |
| 20260506071645 | 55 | 66 | 6.0 | 11.0 | 0.00 | 0.00 | 0.00 | 72 | 1009.5 |
| 20260506071143 | 55 | 63 | 4.0 | 8.0 | 0.00 | 0.00 | 0.00 | 74 | 1009.5 |
| 20260506070640 | 54 | 61 | 9.0 | 13.0 | 0.00 | 0.00 | 0.00 | 72 | 1009.4 |
| 20260506070137 | 54 | 56 | 6.0 | 8.0 | 0.00 | 0.00 | 0.00 | 73 | 1009.5 |
| 20260506062114 | 53 | 69 | 5.0 | 9.0 | 0.00 | 0.00 | 0.00 | 77 | 1009.7 |
| 20260506061609 | 52 | 60 | 5.0 | 10.0 | 0.00 | 0.00 | 0.00 | 79 | 1009.9 |
| 20260506061108 | 52 | 44 | 4.0 | 10.0 | 0.00 | 0.00 | 0.00 | 79 | 1009.7 |